#timestamp,LO_Frequency,Hit,StdDev 
1570827615.3,286046999.6,N
1570827635.1,286046999.7,N
1570827636.0,286046999.7,N
1570827655.8,286046996.5,N
1570827675.7,286046998.9,N
1570827695.5,286047001.1,N
1570827715.3,286046999.0,N
1570827735.2,286046996.4,N
1570827755.0,286046992.6,Y
1570827755.9,286046992.6,P
1570827775.8,286046999.1,N
1570827795.6,286047002.8,N
1570827815.4,286047000.8,N
1570827835.3,286047000.7,N
1570827855.1,286047000.3,N
1570827875.8,286047000.5,N
1570827895.7,286046999.7,N
1570827915.5,286047003.8,N
1570827935.4,286047000.1,N
1570827955.2,286047002.8,N
1570827975.0,286047002.0,N
1570827975.9,286047002.0,N
1570827995.8,286046998.8,N
1570828015.6,286047000.0,N
1570828035.4,286046998.7,N
1570828055.3,286046998.4,N
1570828075.1,286046998.8,N
1570828095.9,286047000.7,N
1570828115.7,286046998.6,N
1570828135.5,286046999.2,N
1570828155.4,286046998.9,N
1570828175.2,286046999.0,N
1570828195.0,286046993.6,Y
1570828195.9,286046993.6,P
1570828215.8,286046997.2,N
1570828235.6,286046992.3,N
1570828255.5,286046990.1,Y
1570828275.3,286046991.8,P
1570828295.1,286046997.6,N
1570828315.9,286047002.3,N
1570828335.7,286047002.5,N
1570828355.5,286047001.8,N
1570828375.4,286047001.0,N
1570828395.2,286047002.5,N
1570828415.1,286046999.0,N
1570828416.0,286046999.0,N
1570828435.8,286046997.2,N
1570828455.6,286047000.4,N
1570828475.5,286046995.8,N
1570828495.3,286046994.7,N
1570828515.1,286046996.6,N
1570828535.9,286046998.3,N
1570828555.7,286047002.7,N
1570828575.6,286047000.4,N
1570828595.4,286046994.6,N
1570828615.2,286046994.0,N
1570828635.1,286046995.9,N
1570828636.0,286046995.9,N
1570828655.8,286046994.7,N
1570828675.6,286046994.0,N
1570828695.5,286046992.1,N
1570828715.3,286046992.5,N
1570828735.2,286046993.9,N
1570828755.9,286046993.9,N
1570828775.7,286046993.6,N
1570828795.6,286046992.3,N
1570828815.4,286046989.3,Y
1570828835.2,286046996.2,P
1570828855.1,286046990.8,P
1570828856.0,286046990.8,P
1570828875.8,286046990.8,Y
1570828895.7,286046997.2,P
1570828915.5,286046997.2,N
1570828935.3,286046996.2,N
1570828955.2,286046995.8,N
1570828975.0,286046996.6,N
1570828975.9,286046996.6,N
1570828995.8,286046995.2,Y
1570829015.6,286046998.9,P
1570829035.4,286047000.1,N
1570829055.3,286047002.2,N
1570829075.1,286047000.3,N
1570829095.8,286046996.8,N
1570829115.7,286046997.6,N
1570829135.5,286046998.0,N
1570829155.4,286046997.9,N
1570829175.2,286046997.5,N
1570829195.0,286046996.4,N
1570829195.9,286046996.4,N
1570829215.8,286046992.7,Y
1570829235.6,286046996.5,P
1570829255.4,286047001.0,N
1570829275.3,286046999.4,N
1570829295.1,286046997.5,N
1570829315.9,286046996.9,N
1570829335.7,286047001.2,N
1570829355.5,286046999.8,N
1570829375.4,286046998.6,N
1570829395.2,286046997.1,N
1570829415.1,286046997.9,N
1570829416.0,286046997.9,N
1570829435.8,286046996.1,N
1570829455.6,286046998.8,N
1570829475.5,286046995.0,Y
1570829495.3,286046999.8,P
1570829515.1,286047001.6,N
1570829535.9,286047007.1,P
1570829555.7,286047006.9,N
1570829575.6,286047012.1,Y
1570829595.4,286047012.3,P
1570829615.2,286047009.1,N
1570829635.1,286047004.8,N
1570829636.0,286047004.8,N
1570829655.8,286047007.6,N
1570829675.6,286047002.1,N
1570829695.5,286046999.8,N
1570829715.3,286046998.0,N
1570829735.2,286046993.4,N
1570829755.9,286046996.4,N
1570829775.7,286047001.4,N
1570829795.6,286046999.7,N
1570829815.4,286046998.6,N
1570829835.3,286046998.9,N
1570829855.1,286047002.5,N
1570829856.0,286047002.5,N
1570829875.8,286047004.2,N
1570829895.7,286047006.4,N
1570829915.5,286047007.7,N
1570829935.3,286047012.0,N
1570829955.2,286047008.9,N
1570829975.0,286047003.5,N
1570829975.9,286047003.5,N
1570829995.8,286047002.3,N
1570830015.6,286047000.1,N
1570830035.4,286046999.1,N
1570830055.3,286046997.1,N
1570830075.1,286046997.4,N
1570830095.8,286046997.6,N
1570830115.7,286046995.5,N
1570830135.5,286046998.0,N
1570830155.4,286046997.9,N
1570830175.2,286046999.7,N
1570830195.0,286047002.5,N
1570830195.9,286047002.5,N
1570830215.8,286046999.7,N
1570830235.6,286047005.2,N
1570830255.4,286047002.2,N
1570830275.3,286046999.9,N
1570830295.1,286047000.0,N
1570830315.9,286047003.2,N
1570830335.7,286047008.0,N
1570830355.5,286047006.6,N
1570830375.4,286047004.3,N
1570830395.2,286047001.4,N
1570830415.0,286047003.4,N
1570830415.9,286047003.4,N
1570830435.8,286046999.9,N
1570830455.6,286046998.6,N
1570830475.5,286046998.3,N
1570830495.3,286047000.6,N
1570830515.1,286047000.8,N
1570830535.9,286047001.1,N
1570830555.7,286046998.6,N
1570830575.5,286047001.1,N
1570830595.4,286047003.1,N
1570830615.2,286047007.2,N
1570830635.1,286047007.8,N
1570830636.0,286047007.8,N
1570830655.8,286047009.5,N
1570830675.6,286047012.2,Y
1570830695.5,286047009.2,P
1570830715.3,286047009.6,N
1570830735.1,286047008.2,N
1570830755.9,286047008.5,N
1570830775.7,286047009.9,Y
1570830795.6,286047000.3,P
1570830815.4,286047003.0,N
1570830835.2,286047007.5,N
1570830855.1,286047007.9,N
1570830856.0,286047007.9,N
1570830875.8,286047007.3,N
1570830895.7,286047006.0,N
1570830915.5,286047001.6,N
1570830935.3,286046998.5,N
1570830955.2,286046999.5,N
1570830975.9,286046997.7,N
1570830995.7,286046991.7,N
1570831015.6,286046992.5,N
1570831035.4,286046990.3,N
1570831055.3,286046988.5,N
1570831075.1,286046993.2,N
1570831076.0,286046993.2,N
1570831095.8,286046993.0,N
1570831115.7,286046990.5,N
1570831135.5,286046991.8,N
1570831155.3,286046990.9,N
1570831175.2,286046988.8,N
1570831195.0,286046991.6,N
1570831195.9,286046991.6,N
